Location: Newark
(34.6283°N, 36.0776°E)
Time: 04:57:47
(UTC+00:00)

A-11 Canister half - Pass Details

Date: 20 September 2019
Orbit: 1527 x 1682 km, 47.3° (Epoch: 22 October)

Event Time Altitude Azimuth Distance (km) Brightness Sun altitude
Rises 06:32:12 0° 302° (WNW) 4,780 11.1 36.9°
Reaches altitude 10° 06:35:23 10° 307° (NW) 3,815 10.7 37.5°
Maximum altitude 06:44:56 55° 24° (NNE) 1,905 10.0 39.2°
Drops below altitude 10° 06:54:45 10° 101° (E) 3,918 12.1 40.9°
Sets 06:58:02 0° 106° (ESE) 4,916 12.4 41.4°
